| time (UTC) | temp F | wind direction | speed MPH | gust MPH | rain 1hr in | rain 24hr in | rain mn in | humidity % | barometer mb |
| 20260503013224 | 42 | 289 | 0.0 | 3.0 | 0.00 | 0.08 | 0.08 | 79 | 969.4 |
| 20260503012718 | 42 | 302 | 0.0 | 2.0 | 0.00 | 0.08 | 0.08 | 79 | 969.4 |
| 20260503012212 | 42 | 304 | 0.0 | 2.0 | 0.00 | 0.08 | 0.08 | 79 | 969.3 |
| 20260503011706 | 42 | 294 | 0.0 | 1.0 | 0.00 | 0.08 | 0.08 | 79 | 969.3 |
| 20260503011200 | 42 | 300 | 0.0 | 2.0 | 0.00 | 0.08 | 0.08 | 79 | 969.2 |
| 20260503010654 | 42 | 300 | 0.0 | 2.0 | 0.00 | 0.08 | 0.08 | 80 | 969.2 |
| 20260503010148 | 42 | 329 | 0.0 | 0.0 | 0.00 | 0.08 | 0.08 | 81 | 969.2 |
| 20260503005642 | 42 | 329 | 0.0 | 0.0 | 0.00 | 0.08 | 0.08 | 80 | 969.1 |
| 20260503005136 | 43 | 329 | 0.0 | 2.0 | 0.00 | 0.08 | 0.08 | 79 | 969.1 |
| 20260503004630 | 43 | 300 | 0.0 | 5.0 | 0.00 | 0.08 | 0.08 | 79 | 969.1 |
| 20260503004124 | 43 | 177 | 0.0 | 5.0 | 0.00 | 0.08 | 0.08 | 79 | 969.0 |
| 20260503003835 | 43 | 303 | 0.0 | 0.0 | 0.00 | 0.08 | 0.08 | 81 | 968.9 |
| 20260503003112 | 43 | 328 | 0.0 | 0.0 | 0.00 | 0.09 | 0.08 | 80 | 968.9 |
| 20260503002606 | 43 | 300 | 0.0 | 0.0 | 0.00 | 0.09 | 0.08 | 80 | 968.8 |
| 20260503002059 | 43 | 298 | 0.0 | 0.0 | 0.00 | 0.09 | 0.08 | 80 | 968.7 |
| 20260503001554 | 43 | 298 | 0.0 | 0.0 | 0.00 | 0.09 | 0.08 | 79 | 968.8 |
| 20260503001047 | 43 | 311 | 0.0 | 1.0 | 0.00 | 0.09 | 0.08 | 79 | 968.8 |
| 20260503000541 | 43 | 298 | 0.0 | 2.0 | 0.00 | 0.09 | 0.08 | 78 | 968.8 |
| 20260503000036 | 44 | 298 | 0.0 | 2.0 | 0.00 | 0.10 | 0.08 | 77 | 968.8 |
| 20260502235529 | 44 | 305 | 0.0 | 2.0 | 0.00 | 0.10 | 0.08 | 77 | 968.8 |
| 20260502235024 | 44 | 282 | 0.0 | 1.0 | 0.00 | 0.10 | 0.08 | 77 | 968.7 |
| 20260502234518 | 44 | 39 | 0.0 | 0.0 | 0.00 | 0.11 | 0.08 | 79 | 968.6 |
| 20260502234012 | 44 | 32 | 0.0 | 2.0 | 0.00 | 0.11 | 0.08 | 78 | 968.7 |
| 20260502233506 | 44 | 32 | 0.0 | 2.0 | 0.00 | 0.11 | 0.08 | 78 | 968.7 |
| 20260502233217 | 44 | 39 | 0.0 | 2.0 | 0.00 | 0.11 | 0.08 | 77 | 968.7 |
| 20260502232455 | 44 | 22 | 0.0 | 0.0 | 0.00 | 0.11 | 0.08 | 76 | 968.6 |
| 20260502232214 | 44 | 23 | 0.0 | 3.0 | 0.00 | 0.11 | 0.08 | 76 | 968.6 |
| 20260502231442 | 44 | 22 | 1.0 | 3.0 | 0.00 | 0.11 | 0.08 | 76 | 968.6 |
| 20260502230936 | 44 | 340 | 1.0 | 6.0 | 0.00 | 0.11 | 0.08 | 76 | 968.5 |
| 20260502230429 | 45 | 23 | 1.0 | 6.0 | 0.00 | 0.11 | 0.08 | 75 | 968.5 |
| 20260502225924 | 45 | 276 | 0.0 | 2.0 | 0.00 | 0.11 | 0.08 | 75 | 968.5 |
| 20260502225418 | 45 | 345 | 0.0 | 2.0 | 0.00 | 0.11 | 0.08 | 75 | 968.5 |
| 20260502224912 | 45 | 13 | 0.0 | 0.0 | 0.00 | 0.11 | 0.08 | 74 | 968.5 |
| 20260502224406 | 45 | 288 | 0.0 | 2.0 | 0.00 | 0.11 | 0.08 | 75 | 968.4 |
| 20260502223900 | 45 | 289 | 0.0 | 4.0 | 0.00 | 0.11 | 0.08 | 74 | 968.4 |
| 20260502223354 | 45 | 294 | 0.0 | 4.0 | 0.00 | 0.11 | 0.08 | 73 | 968.4 |
| 20260502222847 | 45 | 299 | 0.0 | 1.0 | 0.00 | 0.11 | 0.08 | 75 | 968.4 |
| 20260502222342 | 45 | 290 | 0.0 | 1.0 | 0.00 | 0.11 | 0.08 | 73 | 968.4 |
| 20260502221843 | 46 | 30 | 0.0 | 0.0 | 0.00 | 0.11 | 0.08 | 74 | 968.3 |
| 20260502221339 | 46 | 315 | 0.0 | 0.0 | 0.00 | 0.11 | 0.08 | 74 | 968.4 |
| 20260502220839 | 46 | 285 | 0.0 | 0.0 | 0.00 | 0.11 | 0.08 | 75 | 968.4 |
| 20260502220339 | 46 | 317 | 0.0 | 1.0 | 0.00 | 0.11 | 0.08 | 75 | 968.4 |
| 20260502215839 | 46 | 304 | 0.0 | 4.0 | 0.00 | 0.11 | 0.08 | 75 | 968.4 |
| 20260502215337 | 46 | 32 | 1.0 | 5.0 | 0.00 | 0.11 | 0.08 | 76 | 968.4 |
| 20260502214836 | 45 | 40 | 1.0 | 5.0 | 0.00 | 0.11 | 0.08 | 76 | 968.4 |
| 20260502214336 | 45 | 256 | 1.0 | 4.0 | 0.00 | 0.11 | 0.08 | 77 | 968.4 |
| 20260502213833 | 45 | 338 | 0.0 | 0.0 | 0.00 | 0.11 | 0.08 | 79 | 968.3 |
| 20260502213552 | 45 | 349 | 1.0 | 3.0 | 0.00 | 0.12 | 0.08 | 78 | 968.3 |
| 20260502212832 | 45 | 10 | 1.0 | 3.0 | 0.00 | 0.12 | 0.08 | 78 | 968.3 |
| 20260502212332 | 44 | 35 | 0.0 | 3.0 | 0.00 | 0.12 | 0.08 | 79 | 968.3 |
| 20260502211832 | 44 | 305 | 0.0 | 3.0 | 0.00 | 0.12 | 0.08 | 78 | 968.3 |
| 20260502211331 | 44 | 19 | 0.0 | 2.0 | 0.00 | 0.12 | 0.08 | 78 | 968.3 |
| 20260502211313 | 45 | 41 | 0.0 | 1.0 | 0.00 | 0.12 | 0.08 | 79 | 968.3 |
| 20260502210554 | 45 | 304 | 0.0 | 1.0 | 0.00 | 0.12 | 0.08 | 79 | 968.2 |
| 20260502205827 | 45 | 19 | 0.0 | 1.0 | 0.00 | 0.12 | 0.08 | 79 | 968.2 |
| 20260502205325 | 45 | 254 | 0.0 | 5.0 | 0.00 | 0.12 | 0.08 | 78 | 968.2 |
| 20260502204824 | 45 | 94 | 1.0 | 5.0 | 0.00 | 0.13 | 0.08 | 77 | 968.3 |
| 20260502204322 | 45 | 306 | 1.0 | 4.0 | 0.00 | 0.13 | 0.08 | 77 | 968.3 |
| 20260502203823 | 45 | 27 | 1.0 | 4.0 | 0.00 | 0.13 | 0.08 | 77 | 968.3 |
| 20260502203321 | 45 | 38 | 2.0 | 7.0 | 0.00 | 0.13 | 0.08 | 77 | 968.2 |
| 20260502202821 | 45 | 348 | 2.0 | 7.0 | 0.00 | 0.14 | 0.08 | 76 | 968.3 |
| 20260502202546 | 45 | 343 | 1.0 | 6.0 | 0.00 | 0.14 | 0.08 | 76 | 968.2 |
| 20260502201821 | 45 | 54 | 1.0 | 4.0 | 0.00 | 0.14 | 0.08 | 77 | 968.3 |
| 20260502201322 | 45 | 296 | 1.0 | 9.0 | 0.00 | 0.15 | 0.08 | 76 | 968.3 |
| 20260502200822 | 45 | 346 | 2.0 | 9.0 | 0.00 | 0.16 | 0.08 | 76 | 968.2 |
| 20260502200322 | 45 | 47 | 1.0 | 3.0 | 0.00 | 0.16 | 0.08 | 75 | 968.3 |
| 20260502195822 | 46 | 350 | 2.0 | 11.0 | 0.00 | 0.17 | 0.08 | 74 | 968.3 |
| 20260502195320 | 46 | 299 | 2.0 | 11.0 | 0.00 | 0.17 | 0.08 | 71 | 968.3 |
| 20260502194821 | 47 | 304 | 1.0 | 6.0 | 0.00 | 0.17 | 0.08 | 69 | 968.3 |
| 20260502194320 | 47 | 304 | 0.0 | 3.0 | 0.00 | 0.17 | 0.08 | 69 | 968.3 |
| 20260502193820 | 47 | 308 | 0.0 | 3.0 | 0.00 | 0.17 | 0.08 | 66 | 968.2 |
| 20260502193322 | 47 | 21 | 0.0 | 0.0 | 0.00 | 0.17 | 0.08 | 69 | 968.3 |
| 20260502192821 | 48 | 21 | 0.0 | 0.0 | 0.00 | 0.17 | 0.08 | 68 | 968.3 |
| 20260502192321 | 48 | 313 | 0.0 | 1.0 | 0.00 | 0.17 | 0.08 | 65 | 968.5 |
| 20260502191821 | 48 | 319 | 0.0 | 2.0 | 0.00 | 0.17 | 0.08 | 63 | 968.5 |
| 20260502191321 | 48 | 306 | 0.0 | 2.0 | 0.00 | 0.17 | 0.08 | 63 | 968.5 |
| 20260502190821 | 48 | 294 | 0.0 | 1.0 | 0.00 | 0.17 | 0.08 | 66 | 968.5 |
| 20260502190539 | 48 | 295 | 0.0 | 4.0 | 0.00 | 0.17 | 0.08 | 64 | 968.6 |
| 20260502185820 | 48 | 295 | 1.0 | 4.0 | 0.00 | 0.17 | 0.08 | 63 | 968.7 |
| 20260502185321 | 47 | 15 | 0.0 | 2.0 | 0.00 | 0.17 | 0.08 | 65 | 968.8 |
| 20260502184821 | 47 | 30 | 0.0 | 2.0 | 0.00 | 0.17 | 0.08 | 67 | 968.9 |
| 20260502184321 | 47 | 288 | 1.0 | 3.0 | 0.00 | 0.17 | 0.08 | 65 | 968.9 |
| 20260502183821 | 47 | 349 | 1.0 | 4.0 | 0.00 | 0.17 | 0.08 | 68 | 969.0 |
| 20260502183322 | 47 | 292 | 1.0 | 5.0 | 0.00 | 0.17 | 0.08 | 64 | 969.0 |
| 20260502182819 | 47 | 312 | 1.0 | 6.0 | 0.00 | 0.17 | 0.08 | 64 | 969.0 |
| 20260502182319 | 47 | 343 | 1.0 | 6.0 | 0.00 | 0.17 | 0.08 | 63 | 969.1 |
| 20260502181820 | 48 | 271 | 0.0 | 1.0 | 0.00 | 0.17 | 0.08 | 62 | 969.0 |
| 20260502181319 | 48 | 313 | 0.0 | 2.0 | 0.00 | 0.17 | 0.08 | 61 | 969.0 |
| 20260502180817 | 48 | 290 | 0.0 | 3.0 | 0.00 | 0.17 | 0.08 | 60 | 968.9 |
| 20260502180318 | 48 | 344 | 1.0 | 3.0 | 0.00 | 0.17 | 0.08 | 62 | 968.9 |
| 20260502164226 | 49 | 325 | 1.0 | 9.0 | 0.00 | 0.17 | 0.08 | 62 | 969.0 |
| 20260502163724 | 49 | 299 | 1.0 | 9.0 | 0.00 | 0.17 | 0.08 | 60 | 969.1 |
| 20260502163224 | 49 | 300 | 1.0 | 3.0 | 0.00 | 0.17 | 0.08 | 62 | 969.1 |
| 20260502162724 | 48 | 296 | 0.0 | 3.0 | 0.00 | 0.17 | 0.08 | 61 | 969.1 |
| 20260502162224 | 48 | 209 | 1.0 | 7.0 | 0.00 | 0.17 | 0.08 | 62 | 969.2 |
| 20260502161722 | 48 | 279 | 1.0 | 7.0 | 0.00 | 0.17 | 0.08 | 62 | 969.3 |
| 20260502161224 | 48 | 279 | 1.0 | 5.0 | 0.00 | 0.17 | 0.08 | 61 | 969.3 |
| 20260502160720 | 48 | 163 | 1.0 | 5.0 | 0.00 | 0.17 | 0.08 | 61 | 969.3 |
| 20260502160220 | 48 | 306 | 1.0 | 5.0 | 0.00 | 0.17 | 0.08 | 59 | 969.2 |
| 20260502152211 | 50 | 301 | 0.0 | 4.0 | 0.00 | 0.17 | 0.08 | 62 | 969.3 |
| 20260502151711 | 49 | 298 | 0.0 | 1.0 | 0.00 | 0.17 | 0.08 | 61 | 969.4 |
| 20260502151204 | 49 | 31 | 0.0 | 2.0 | 0.00 | 0.17 | 0.08 | 61 | 969.3 |
| 20260502150659 | 48 | 19 | 1.0 | 8.0 | 0.00 | 0.17 | 0.08 | 62 | 969.3 |
| 20260502150153 | 48 | 31 | 2.0 | 8.0 | 0.00 | 0.17 | 0.08 | 64 | 969.4 |
| 20260502130435 | 41 | 26 | 0.0 | 5.0 | 0.00 | 0.17 | 0.08 | 87 | 969.7 |
| 20260502123359 | 39 | 220 | 0.0 | 1.0 | 0.00 | 0.17 | 0.08 | 93 | 970.0 |
| 20260502122853 | 39 | 220 | 0.0 | 3.0 | 0.00 | 0.17 | 0.08 | 94 | 969.9 |
| 20260502122347 | 39 | 298 | 0.0 | 3.0 | 0.00 | 0.17 | 0.08 | 95 | 970.0 |
| 20260502121841 | 38 | 297 | 0.0 | 2.0 | 0.00 | 0.17 | 0.08 | 96 | 970.0 |
| 20260502121824 | 38 | 296 | 0.0 | 2.0 | 0.00 | 0.17 | 0.08 | 97 | 970.1 |
| 20260502121055 | 37 | 120 | 0.0 | 1.0 | 0.00 | 0.17 | 0.08 | 98 | 970.1 |
| 20260502120556 | 37 | 284 | 0.0 | 1.0 | 0.00 | 0.17 | 0.08 | 98 | 970.0 |
| 20260502115830 | 37 | 282 | 0.0 | 1.0 | 0.00 | 0.17 | 0.08 | 99 | 970.1 |
| 20260502115329 | 36 | 225 | 0.0 | 0.0 | 0.00 | 0.17 | 0.08 | 99 | 970.1 |
| 20260502114827 | 36 | 188 | 0.0 | 0.0 | 0.00 | 0.17 | 0.08 | 99 | 970.0 |
| 20260502114326 | 36 | 224 | 0.0 | 0.0 | 0.00 | 0.17 | 0.08 | 99 | 969.9 |
| 20260502114048 | 36 | 224 | 0.0 | 0.0 | 0.00 | 0.17 | 0.08 | 99 | 969.8 |
| 20260502113325 | 35 | 224 | 0.0 | 0.0 | 0.00 | 0.17 | 0.08 | 99 | 969.8 |
| 20260502112824 | 35 | 224 | 0.0 | 0.0 | 0.00 | 0.17 | 0.08 | 99 | 969.8 |
| 20260502112322 | 35 | 200 | 0.0 | 0.0 | 0.00 | 0.17 | 0.08 | 99 | 969.8 |
| 20260502111819 | 35 | 288 | 0.0 | 0.0 | 0.00 | 0.17 | 0.08 | 99 | 969.8 |
| 20260502111321 | 35 | 288 | 0.0 | 0.0 | 0.00 | 0.17 | 0.08 | 99 | 969.8 |
| 20260502110819 | 35 | 288 | 0.0 | 0.0 | 0.00 | 0.17 | 0.08 | 99 | 969.8 |
| 20260502110318 | 35 | 288 | 0.0 | 0.0 | 0.00 | 0.17 | 0.08 | 99 | 969.8 |
| 20260502105819 | 35 | 288 | 0.0 | 0.0 | 0.00 | 0.17 | 0.08 | 99 | 969.8 |
| 20260502105539 | 35 | 288 | 0.0 | 0.0 | 0.00 | 0.17 | 0.08 | 98 | 969.8 |
| 20260502104816 | 34 | 288 | 0.0 | 0.0 | 0.00 | 0.17 | 0.08 | 98 | 969.8 |
| 20260502104320 | 34 | 288 | 0.0 | 0.0 | 0.00 | 0.17 | 0.08 | 98 | 969.7 |
| 20260502103812 | 34 | 288 | 0.0 | 0.0 | 0.00 | 0.17 | 0.08 | 98 | 969.9 |
| 20260502103312 | 34 | 288 | 0.0 | 0.0 | 0.00 | 0.17 | 0.08 | 98 | 970.0 |
| 20260502103253 | 34 | 288 | 0.0 | 0.0 | 0.00 | 0.17 | 0.08 | 98 | 970.0 |
| 20260502102311 | 34 | 288 | 0.0 | 0.0 | 0.00 | 0.17 | 0.08 | 98 | 969.9 |
| 20260502101809 | 34 | 288 | 0.0 | 0.0 | 0.00 | 0.17 | 0.08 | 98 | 969.9 |
| 20260502101309 | 35 | 288 | 0.0 | 1.0 | 0.00 | 0.17 | 0.08 | 98 | 969.8 |
| 20260502100808 | 35 | 288 | 0.0 | 1.0 | 0.00 | 0.17 | 0.08 | 98 | 969.6 |
| 20260502100530 | 35 | 310 | 0.0 | 1.0 | 0.00 | 0.17 | 0.08 | 98 | 969.6 |
| 20260502091305 | 36 | 297 | 0.0 | 0.0 | 0.00 | 0.17 | 0.08 | 96 | 969.1 |
| 20260502090803 | 36 | 297 | 0.0 | 0.0 | 0.00 | 0.17 | 0.08 | 96 | 969.1 |
| 20260502090305 | 37 | 297 | 0.0 | 0.0 | 0.00 | 0.17 | 0.08 | 96 | 969.0 |
| 20260502071506 | 39 | 304 | 0.0 | 0.0 | 0.00 | 0.17 | 0.08 | 96 | 968.6 |
| 20260502070746 | 39 | 304 | 0.0 | 0.0 | 0.00 | 0.17 | 0.08 | 96 | 968.5 |
| 20260502070246 | 39 | 304 | 0.0 | 0.0 | 0.00 | 0.17 | 0.08 | 96 | 968.4 |
| 20260502065740 | 40 | 304 | 0.0 | 0.0 | 0.00 | 0.17 | 0.08 | 96 | 968.4 |
| 20260502065238 | 40 | 304 | 0.0 | 0.0 | 0.00 | 0.17 | 0.08 | 96 | 968.3 |
| 20260502064737 | 40 | 304 | 0.0 | 0.0 | 0.00 | 0.17 | 0.08 | 96 | 968.3 |
| 20260502064457 | 40 | 304 | 0.0 | 0.0 | 0.00 | 0.17 | 0.08 | 96 | 968.3 |
| 20260502063736 | 40 | 304 | 0.0 | 0.0 | 0.00 | 0.17 | 0.08 | 95 | 968.4 |
| 20260502063235 | 40 | 304 | 0.0 | 0.0 | 0.00 | 0.17 | 0.08 | 95 | 968.5 |
| 20260502062731 | 40 | 304 | 0.0 | 0.0 | 0.01 | 0.17 | 0.08 | 94 | 968.5 |
| 20260502062233 | 40 | 304 | 0.0 | 0.0 | 0.01 | 0.17 | 0.08 | 94 | 968.4 |
| 20260502061959 | 40 | 304 | 0.0 | 1.0 | 0.02 | 0.17 | 0.08 | 94 | 968.5 |
| 20260502061229 | 40 | 304 | 0.0 | 2.0 | 0.02 | 0.17 | 0.08 | 93 | 968.6 |
| 20260502060955 | 41 | 340 | 1.0 | 3.0 | 0.03 | 0.17 | 0.08 | 93 | 968.6 |
| 20260502060226 | 41 | 11 | 1.0 | 8.0 | 0.03 | 0.17 | 0.08 | 93 | 968.6 |
| 20260502055726 | 41 | 344 | 2.0 | 9.0 | 0.03 | 0.17 | 0.08 | 93 | 968.5 |
| 20260502055226 | 41 | 277 | 3.0 | 9.0 | 0.03 | 0.17 | 0.08 | 95 | 968.5 |
| 20260502054725 | 42 | 9 | 2.0 | 9.0 | 0.03 | 0.17 | 0.08 | 96 | 968.5 |
| 20260502054443 | 42 | 21 | 1.0 | 7.0 | 0.03 | 0.17 | 0.08 | 96 | 968.5 |
| 20260502053723 | 42 | 313 | 2.0 | 10.0 | 0.03 | 0.17 | 0.08 | 95 | 968.4 |
| 20260502053224 | 42 | 319 | 2.0 | 10.0 | 0.03 | 0.17 | 0.08 | 95 | 968.3 |
| 20260502052727 | 43 | 333 | 2.0 | 7.0 | 0.02 | 0.16 | 0.07 | 96 | 968.3 |
| 20260502052220 | 43 | 347 | 2.0 | 7.0 | 0.03 | 0.16 | 0.07 | 96 | 968.2 |
| 20260502051718 | 43 | 11 | 1.0 | 5.0 | 0.02 | 0.15 | 0.06 | 97 | 968.1 |
| 20260502051219 | 43 | 14 | 0.0 | 3.0 | 0.03 | 0.15 | 0.06 | 97 | 968.1 |
| 20260502050715 | 44 | 205 | 0.0 | 0.0 | 0.03 | 0.14 | 0.05 | 98 | 968.1 |
| 20260502050213 | 44 | 205 | 0.0 | 0.0 | 0.04 | 0.14 | 0.05 | 98 | 968.1 |
| 20260502045713 | 44 | 205 | 0.0 | 0.0 | 0.05 | 0.14 | 0.05 | 97 | 968.1 |
| 20260502045210 | 44 | 205 | 0.0 | 0.0 | 0.05 | 0.14 | 0.05 | 97 | 968.0 |
| 20260502044709 | 43 | 205 | 0.0 | 0.0 | 0.05 | 0.14 | 0.05 | 97 | 968.1 |
| 20260502044436 | 44 | 205 | 0.0 | 0.0 | 0.05 | 0.14 | 0.05 | 97 | 968.1 |
| 20260502043709 | 44 | 205 | 0.0 | 0.0 | 0.05 | 0.14 | 0.05 | 96 | 968.0 |
| 20260502043205 | 44 | 205 | 0.0 | 0.0 | 0.05 | 0.14 | 0.05 | 96 | 967.8 |
| 20260502042705 | 44 | 205 | 0.0 | 2.0 | 0.05 | 0.14 | 0.05 | 96 | 967.8 |
| 20260502042209 | 44 | 206 | 0.0 | 2.0 | 0.04 | 0.13 | 0.04 | 97 | 967.7 |
| 20260502041706 | 44 | 301 | 0.0 | 1.0 | 0.04 | 0.13 | 0.04 | 97 | 967.6 |
| 20260502041206 | 44 | 28 | 0.0 | 2.0 | 0.03 | 0.12 | 0.03 | 97 | 967.6 |
| 20260502040706 | 44 | 269 | 0.0 | 2.0 | 0.02 | 0.11 | 0.03 | 97 | 967.7 |
| 20260502040205 | 45 | 299 | 0.0 | 2.0 | 0.01 | 0.10 | 0.01 | 98 | 967.8 |
| 20260502035933 | 45 | 297 | 0.0 | 0.0 | 0.00 | 0.09 | 0.09 | 98 | 967.6 |
| 20260502035206 | 45 | 28 | 0.0 | 0.0 | 0.00 | 0.09 | 0.09 | 98 | 967.5 |
| 20260502034927 | 45 | 28 | 0.0 | 0.0 | 0.00 | 0.09 | 0.09 | 97 | 967.4 |
| 20260502034154 | 45 | 28 | 0.0 | 0.0 | 0.00 | 0.09 | 0.09 | 98 | 967.2 |
| 20260502033648 | 45 | 28 | 0.0 | 0.0 | 0.00 | 0.09 | 0.09 | 98 | 967.1 |
| 20260502033142 | 45 | 28 | 0.0 | 0.0 | 0.00 | 0.09 | 0.09 | 98 | 967.1 |
| 20260502032636 | 45 | 28 | 0.0 | 0.0 | 0.00 | 0.09 | 0.09 | 98 | 967.3 |
| 20260502032351 | 45 | 28 | 0.0 | 0.0 | 0.00 | 0.09 | 0.09 | 98 | 967.4 |
| 20260502031624 | 45 | 28 | 0.0 | 0.0 | 0.00 | 0.09 | 0.09 | 98 | 967.4 |
| 20260502031118 | 45 | 29 | 0.0 | 0.0 | 0.00 | 0.09 | 0.09 | 98 | 967.6 |
| 20260502030612 | 45 | 29 | 0.0 | 0.0 | 0.00 | 0.09 | 0.09 | 98 | 967.5 |
| 20260502030106 | 45 | 29 | 0.0 | 0.0 | 0.00 | 0.09 | 0.09 | 98 | 967.5 |
| 20260502025818 | 45 | 29 | 0.0 | 0.0 | 0.00 | 0.09 | 0.09 | 98 | 967.5 |
| 20260502025054 | 46 | 29 | 0.0 | 0.0 | 0.00 | 0.09 | 0.09 | 98 | 967.3 |
| 20260502024548 | 46 | 29 | 0.0 | 0.0 | 0.00 | 0.09 | 0.09 | 98 | 967.3 |
| 20260502024042 | 46 | 29 | 0.0 | 0.0 | 0.00 | 0.09 | 0.09 | 98 | 966.9 |
| 20260502023536 | 46 | 24 | 0.0 | 0.0 | 0.00 | 0.09 | 0.09 | 98 | 967.3 |
| 20260502023030 | 46 | 24 | 0.0 | 0.0 | 0.00 | 0.09 | 0.09 | 98 | 967.4 |
| 20260502022524 | 46 | 24 | 0.0 | 0.0 | 0.00 | 0.09 | 0.09 | 98 | 967.3 |
| 20260502022017 | 46 | 24 | 0.0 | 0.0 | 0.00 | 0.09 | 0.09 | 98 | 967.2 |
| 20260502021512 | 46 | 24 | 0.0 | 0.0 | 0.00 | 0.09 | 0.09 | 98 | 967.1 |
| 20260502021006 | 46 | 24 | 0.0 | 0.0 | 0.00 | 0.09 | 0.09 | 98 | 967.2 |
| 20260502020459 | 46 | 24 | 0.0 | 0.0 | 0.00 | 0.09 | 0.09 | 98 | 967.2 |
| 20260502015954 | 46 | 24 | 0.0 | 0.0 | 0.00 | 0.09 | 0.09 | 98 | 967.2 |
| 20260502015717 | 46 | 24 | 0.0 | 0.0 | 0.00 | 0.09 | 0.09 | 98 | 967.1 |
| 20260502014942 | 46 | 24 | 0.0 | 0.0 | 0.00 | 0.09 | 0.09 | 98 | 967.2 |
| 20260502014705 | 46 | 24 | 0.0 | 0.0 | 0.00 | 0.09 | 0.09 | 98 | 967.3 |
| 20260502013930 | 46 | 24 | 0.0 | 0.0 | 0.00 | 0.09 | 0.09 | 98 | 967.2 |